N1JFY Weather Reports


Display with metric or nautical units.
time (UTC)temp
F
wind
direction
speed
MPH
gust
MPH
rain 1hr
in
rain 24hr
in
rain mn
in
humidity
%
barometer
mb
20260904000032 60 0.0 0.0 0.01 0.40 0.40 96 1011.1
20260903234528 60 0.0 0.0 0.02 0.40 0.40 96 1011.1
20260903233024 60 0.0 0.0 0.03 0.40 0.40 96 1011.2
20260903231519 60 0.0 0.0 0.04 0.40 0.40 96 1011.1
20260903230015 60 0.0 0.0 0.03 0.39 0.39 96 1011.2
20260903224510 60 0.0 0.0 0.03 0.38 0.38 96 1011.3
20260903223005 60 0.0 0.0 0.02 0.37 0.37 95 1011.5
20260903221502 60 0.0 0.0 0.02 0.36 0.36 95 1011.5
20260903220123 60 0.0 0.0 0.03 0.36 0.36 95 1011.4
20260903214552 60 0.0 0.0 0.02 0.35 0.35 95 1011.5
20260903213049 60 0.0 0.0 0.02 0.35 0.35 95 1011.7
20260903211547 60 0.0 0.0 0.01 0.34 0.34 95 1011.7
20260903210040 60 0.0 0.0 0.00 0.33 0.33 95 1011.8
20260903204535 60 0.0 0.0 0.00 0.33 0.33 95 1011.8
20260903203032 61 0.0 0.0 0.00 0.33 0.33 95 1011.9
20260903201528 60 0.0 0.0 0.00 0.33 0.33 95 1012.1
20260903200022 60 0.0 0.0 0.01 0.33 0.33 95 1012.0
20260903194517 60 0.0 0.0 0.01 0.33 0.33 95 1012.2
20260903193013 60 0.0 0.0 0.01 0.33 0.33 94 1012.5
20260903191509 60 0.0 0.0 0.01 0.33 0.33 95 1012.6
20260903190004 60 0.0 0.0 0.00 0.32 0.32 94 1012.7
20260903184603 60 0.0 0.0 0.00 0.32 0.32 94 1012.8
20260903183057 60 0.0 0.0 0.02 0.32 0.32 94 1012.9
20260903181551 60 0.0 0.0 0.03 0.32 0.32 94 1013.1
20260903180048 60 0.0 0.0 0.03 0.32 0.32 94 1013.4
20260903174542 60 0.0 0.0 0.04 0.32 0.32 94 1013.5
20260903173038 60 0.0 0.0 0.04 0.30 0.30 94 1013.6
20260903171543 60 0.0 0.0 0.04 0.28 0.28 94 1013.6
20260903170039 60 0.0 0.0 0.04 0.28 0.28 94 1013.8
20260903164525 60 0.0 0.0 0.05 0.28 0.28 94 1013.9
20260903163024 60 0.0 0.0 0.04 0.26 0.26 94 1014.1
20260903161516 60 0.0 0.0 0.05 0.25 0.25 94 1014.2
20260903160012 59 0.0 0.0 0.06 0.25 0.25 94 1014.4
20260903154507 59 0.0 0.0 0.05 0.23 0.23 94 1014.6
20260903153003 59 0.0 0.0 0.06 0.22 0.22 94 1014.7
20260903151559 59 0.0 0.0 0.05 0.20 0.20 94 1014.8
20260903150108 59 0.0 0.0 0.06 0.19 0.19 94 1015.1
20260903144550 59 0.0 0.0 0.06 0.18 0.18 94 1015.1
20260903143045 59 0.0 0.0 0.07 0.16 0.16 94 1015.4
20260903141542 59 0.0 0.0 0.07 0.15 0.15 94 1015.5
20260903140040 59 0.0 0.0 0.05 0.13 0.13 94 1015.5
20260903134532 58 0.0 0.0 0.04 0.12 0.12 94 1015.6
20260903133027 58 0.0 0.0 0.01 0.09 0.09 94 1015.8
20260903131526 58 0.0 0.0 0.00 0.08 0.08 94 1015.8
20260903130018 58 0.0 0.0 0.01 0.08 0.08 94 1015.9
20260903124516 58 0.0 0.0 0.01 0.08 0.08 95 1016.1
20260903123009 58 0.0 0.0 0.01 0.08 0.08 95 1016.1
20260903121505 58 0.0 0.0 0.02 0.08 0.08 95 1016.1
20260903120001 57 0.0 0.0 0.01 0.07 0.07 95 1016.2
20260903114559 57 0.0 0.0 0.01 0.07 0.07 95 1016.5
20260903113056 57 0.0 0.0 0.02 0.07 0.07 95 1016.7
20260903111547 57 0.0 0.0 0.02 0.06 0.06 95 1016.7
20260903110043 56 0.0 0.0 0.02 0.06 0.06 95 1016.7
20260903104539 56 0.0 0.0 0.05 0.06 0.06 95 1016.6
20260903103036 56 0.0 0.0 0.05 0.05 0.05 95 1016.7
20260903101530 56 0.0 0.0 0.04 0.04 0.04 94 1016.7
20260903100030 56 0.0 0.0 0.04 0.04 0.04 94 1016.7
20260903094521 55 0.0 0.0 0.01 0.01 0.01 93 1016.6
20260903093017 55 0.0 0.0 0.00 0.00 0.00 93 1016.7
20260903091517 55 0.0 0.0 0.00 0.00 0.00 93 1016.8
20260903090015 54 0.0 0.0 0.00 0.00 0.00 92 1016.9
20260903084512 54 0.0 0.0 0.00 0.00 0.00 91 1017.0
20260903083102 54 0.0 0.0 0.00 0.00 0.00 91 1017.1
20260903081555 54 0.0 0.0 0.00 0.00 0.00 90 1017.0
20260903080052 54 0.0 0.0 0.00 0.00 0.00 90 1017.2
20260903074551 54 0.0 0.0 0.00 0.00 0.00 90 1017.3
20260903073042 53 0.0 0.0 0.00 0.00 0.00 89 1017.4
20260903071538 53 0.0 0.0 0.00 0.00 0.00 89 1017.7
20260903070033 53 0.0 0.0 0.00 0.00 0.00 90 1018.1
20260903064531 53 0.0 0.0 0.00 0.00 0.00 90 1018.0
20260903063029 52 0.0 0.0 0.00 0.00 0.00 92 1018.1
20260903061532 51 0.0 0.0 0.00 0.00 0.00 93 1018.3
20260903060018 50 0.0 0.0 0.00 0.00 0.00 93 1018.4
20260903054513 50 0.0 0.0 0.00 0.00 0.00 93 1018.7
20260903053007 50 0.0 0.0 0.00 0.00 0.00 92 1018.8
20260903051504 50 0.0 0.0 0.00 0.00 0.00 92 1019.0
20260903050104 50 0.0 0.0 0.00 0.00 0.00 91 1018.9
20260903044601 50 0.0 0.0 0.00 0.00 0.00 90 1019.2
20260903043108 50 0.0 0.0 0.00 0.00 0.00 90 1019.1
20260903041551 51 0.0 0.0 0.00 0.00 0.00 89 1018.9
20260903040040 51 0.0 0.0 0.00 0.00 0.00 89 1018.9
20260903034536 52 0.0 0.0 0.00 0.00 0.00 89 1018.9
20260903033032 52 0.0 0.0 0.00 0.00 0.00 88 1018.9
20260903031528 53 0.0 0.0 0.00 0.00 0.00 86 1019.3
20260903030024 55 0.0 0.0 0.00 0.00 0.00 83 1019.3
20260903024519 56 0.0 0.0 0.00 0.00 0.00 81 1019.4
20260903023016 56 0.0 0.0 0.00 0.00 0.00 81 1019.5
20260903021512 55 0.0 0.0 0.00 0.00 0.00 82 1019.6
20260903020006 56 0.0 0.0 0.00 0.00 0.00 81 1019.7
20260903014502 56 0.0 0.0 0.00 0.00 0.00 80 1019.6
20260903013058 56 0.0 0.0 0.00 0.00 0.00 82 1019.5
20260903011557 55 0.0 0.0 0.00 0.00 0.00 84 1019.5
20260903010049 56 0.0 0.0 0.00 0.00 0.00 83 1019.6
20260903004544 56 0.0 0.0 0.00 0.00 0.00 82 1019.5
20260903003040 56 0.0 0.0 0.00 0.00 0.00 82 1019.6
20260903001536 57 0.0 0.0 0.00 0.00 0.00 80 1019.7